TELKOM 2

Last updated on Jan. 29, 2020, 4:37 a.m. UTC

1 28902U 05046A   20028.74603991 -.00000140  00000-0  00000-0 0  9993
2 28902   0.0080  94.2463 0000805 337.6188 121.1730  1.00271524 52068
UTC
Height (km)
Latitude
Longitude
Inclination
Orbital Period
UTC large
Height (km)
Speed (km/s)
/
Latitude / Longitude
Inclination (degrees)
Orbital Period (minutes)
Azimuth
Elevation
Range (km)
Doppler Factor
iOS Compass Heading
iOS Angle

Next 30 passes for location: Hong Kong

Rise time Rise Azimuth (degrees) Set time Set Azimuth (degrees) Duration Max altitude (degrees)

No matching passes for this satellites